{"data":{"norad_id":61700,"epoch":"2026-05-25T01:31:25.275936Z","epoch_age_seconds":62889,"freshness":"FRESH","line1":"1 61700U 24195P   26145.06348699  .00000293  00000+0  22029-4 0  9990","line2":"2 61700  53.1590 160.6807 0000986  83.1129 276.9984 15.30194928 88872","mean_motion":15.30194928,"eccentricity":9.86e-5,"inclination_deg":53.159,"raan_deg":160.6807,"arg_perigee_deg":83.1129,"mean_anomaly_deg":276.9984,"bstar":2.2029e-5,"rev_number":8887,"period_min":94.105657629,"perigee_km":474.55447153167,"apogee_km":475.90595554618,"semimajor_km":6853.3672135389,"source":"CELESTRAK","updated_at":"2026-05-25T13:38:19.441943Z"}}